Retour au catalogue

YUNHAI 2-2F

ActifMétéoLEO
NORAD 59285·PAYLOAD·🇨🇳 China

Lancé Mar 21, 2024 depuis Jiuquan Satellite Launch Center

Loading…

Prochains Passages (prochaines 24 heures)

TLE

FraisSource: Space-Track

Époque: Sep 14, 2026, 14:04 UTC

1 59285U 24052F   26257.58653506 -.00000066  00000-0  37956-4 0  9999
2 59285  50.0113 184.0974 0004993 132.3698 227.7640 14.28015871131933

Suivez YUNHAI 2-2F en temps réel avec AllMySat

Download on the App Store